Theta_e
303 303 303 303 303 303 303 303 304 304 306 308 312 315 316 318 313 308 312 316 318 323 324 324 326 328 329 327 331 329 330 330 329 335 334 336 333 331 333 330 334 332 333 333 333 334 330 328 329 332 332 332 342 343
303 303 303 303 303 303 303 303 303 304 305 306 310 314 315 316 316 308 310 311 310 316 322 321 324 325 324 324 324 326 330 330 330 333 331 332 335 331 332 336 330 335 331 333 334 333 330 328 331 329 328 335 339 343
302 303 303 303 303 303 303 303 303 304 304 305 309 314 315 314 317 311 307 308 313 317 320 321 324 323 323 322 323 329 328 326 328 324 329 330 332 328 333 335 331 330 327 331 331 329 330 329 328 327 329 333 335 336
302 302 303 303 302 303 303 303 304 304 304 305 309 313 315 315 315 316 308 307 308 315 326 323 322 324 322 325 325 324 325 321 323 325 329 330 332 325 330 328 330 329 330 332 332 330 329 328 328 328 329 331 332 333
302 302 302 303 303 303 303 304 304 304 304 305 307 312 315 316 316 317 309 307 307 317 324 325 323 322 322 323 324 325 325 326 326 328 330 332 327 327 327 328 332 328 333 333 330 334 331 332 329 326 331 331 332 331
302 303 303 303 303 303 303 304 304 304 304 304 306 311 315 317 318 310 315 316 314 309 323 329 323 323 323 323 322 324 323 324 324 325 327 325 324 329 333 334 332 327 328 329 331 326 328 327 326 326 329 330 329 328
302 302 302 303 303 303 303 304 304 304 304 304 307 313 315 316 317 312 314 317 313 315 321 327 325 324 321 323 323 321 319 324 325 326 327 328 326 326 328 330 330 326 326 327 324 327 328 326 327 326 326 325 323 325
302 302 302 303 303 303 303 304 304 304 305 304 308 312 316 316 317 311 312 309 315 316 318 326 327 326 322 329 330 324 325 324 325 327 324 329 324 325 330 330 329 325 325 326 327 326 327 327 326 326 326 325 325 323
302 302 302 303 303 303 304 304 305 304 305 307 310 314 315 312 309 312 318 315 310 315 323 326 330 330 325 326 325 326 327 332 323 329 328 327 330 332 332 332 330 328 329 331 328 326 325 327 327 326 326 324 324 324
302 302 303 303 303 304 304 304 304 305 305 309 312 311 314 311 315 315 317 319 313 315 320 324 323 329 324 327 328 329 326 332 332 330 324 328 330 330 330 328 330 329 327 327 328 328 327 328 327 326 325 324 325 325
303 303 303 304 305 305 305 305 305 305 306 310 311 312 314 318 318 320 326 326 323 326 324 324 323 323 321 327 330 327 331 328 333 331 330 331 331 331 331 330 330 327 326 327 329 329 328 328 327 326 325 324 323 323
305 305 305 305 306 306 306 305 305 305 309 310 310 310 314 321 323 326 327 325 327 329 327 327 326 322 321 323 332 331 333 330 333 326 330 333 332 329 327 327 329 326 325 326 326 327 327 327 326 325 325 324 323 322
306 306 306 306 306 307 306 305 305 305 309 310 312 318 323 324 323 328 327 330 329 328 327 325 326 323 322 326 333 333 333 333 326 331 331 332 330 328 330 328 327 325 323 324 325 325 326 326 325 324 325 324 323 321
306 306 307 306 306 307 306 305 305 305 308 313 321 320 326 327 326 326 326 327 326 324 325 324 326 326 326 330 330 331 332 330 331 331 330 330 330 333 329 325 324 325 324 323 325 325 326 327 326 326 325 325 323 322
306 307 306 307 307 307 306 305 305 307 310 315 321 325 328 326 323 323 323 323 323 321 325 329 329 329 330 329 329 330 331 332 330 329 329 333 333 331 330 327 324 325 324 325 324 325 325 325 326 326 325 324 323 322
307 307 307 307 307 306 305 305 305 308 311 315 318 325 326 326 326 325 324 324 322 322 324 328 331 331 331 330 330 331 331 331 332 334 335 336 336 334 329 326 325 324 326 326 325 326 326 326 327 326 322 320 320 321
307 307 307 307 307 306 305 307 309 311 314 318 324 324 325 326 326 325 324 324 321 328 334 331 330 329 327 329 330 329 330 331 335 336 334 333 334 334 330 327 325 324 324 324 324 324 325 323 321 322 323 321 319 321
308 308 307 307 306 305 306 308 312 314 316 317 323 324 324 325 324 325 324 325 326 331 330 331 329 330 331 330 330 330 329 331 333 334 335 331 330 331 332 331 325 323 324 323 323 323 323 322 323 324 324 323 321 320
308 308 308 306 306 307 310 310 312 318 318 320 319 320 322 324 324 323 321 322 324 327 328 327 330 330 329 329 330 331 334 332 334 334 332 330 327 327 329 333 329 327 326 326 326 328 326 325 324 323 322 321 321 321
308 308 307 306 307 311 314 315 313 318 322 321 318 320 324 326 323 322 322 322 327 328 328 328 329 329 326 327 326 328 327 328 330 332 331 329 327 327 328 330 333 333 331 329 328 324 325 324 324 322 321 321 321 322
307 307 307 306 308 310 315 315 316 318 323 325 323 321 323 323 323 322 322 323 327 330 330 328 329 329 328 326 324 325 327 327 330 331 331 329 327 327 328 327 327 329 332 332 332 330 325 327 327 325 323 321 321 322
307 307 307 306 309 313 317 317 319 319 322 323 322 323 324 324 324 322 322 323 325 325 327 328 328 328 327 328 327 326 326 327 327 327 325 325 330 330 330 326 325 327 327 328 329 330 330 328 327 326 325 325 323 323
307 307 308 307 311 315 317 318 322 322 323 323 321 323 324 323 322 319 324 323 324 325 325 326 327 325 324 324 323 324 325 327 328 328 328 327 328 328 327 327 326 327 329 329 328 327 327 326 328 327 328 326 325 326
308 311 313 314 316 317 318 321 322 323 323 323 324 325 324 324 320 323 325 324 323 320 322 324 323 324 324 325 326 327 327 325 326 326 326 326 327 327 327 327 327 327 327 328 329 329 327 328 328 328 328 327 327 327
313 314 312 311 316 318 321 322 323 324 324 323 323 324 324 322 325 325 325 328 328 327 327 327 327 327 327 327 324 323 323 324 325 327 327 326 327 327 328 328 327 329 329 329 330 329 328 327 328 329 328 328 328 327
316 314 314 316 318 321 323 323 324 324 323 323 323 323 325 327 328 329 330 329 328 326 330 329 329 328 328 325 327 327 326 324 325 327 327 328 328 328 329 330 331 330 327 327 329 328 328 329 329 329 328 328 326 325
314 318 316 314 317 319 322 323 322 322 323 324 324 324 326 328 328 331 328 325 326 326 326 326 327 328 329 329 328 326 326 327 328 329 329 328 329 328 328 329 330 330 326 327 328 329 329 329 329 328 328 328 328 328
315 317 320 319 319 320 321 322 322 323 322 321 324 326 327 329 331 327 325 325 326 328 328 328 327 326 327 328 327 327 328 328 327 328 328 328 326 327 329 328 328 327 326 327 328 328 329 329 329 328 328 327 328 328
316 317 318 320 320 320 320 320 321 320 319 322 326 329 329 326 323 324 324 323 326 324 324 326 327 327 328 327 326 327 327 328 329 330 331 332 331 330 328 328 328 327 326 326 325 326 328 328 328 327 327 327 328 328
318 316 319 321 321 321 319 318 319 318 317 324 325 324 324 321 319 319 320 320 321 321 320 321 322 325 326 327 328 329 328 328 328 329 330 332 332 329 329 329 329 330 327 327 327 327 326 325 324 324 324 324 323 322
316 317 318 319 319 318 316 315 315 316 318 324 325 326 325 324 320 318 317 317 318 317 316 317 318 318 319 320 323 326 328 328 327 326 327 328 328 329 327 328 329 330 328 327 328 328 328 327 327 326 326 324 324 323
314 317 318 318 319 317 317 319 318 319 319 323 321 325 326 327 327 321 316 316 317 317 314 313 315 316 317 317 320 323 322 323 324 326 327 326 327 328 329 329 328 327 330 330 329 329 328 329 328 327 327 325 324 322
315 315 316 317 319 320 319 320 320 321 320 320 320 323 326 326 325 319 315 313 314 314 313 312 313 314 315 317 320 320 320 320 322 323 323 324 323 322 320 320 319 321 327 328 328 328 329 329 329 327 325 325 323 322
Wind_Speed
19 19 19 19 18 17 17 17 17 17 15 10 9 10 12 12 13 12 1 5 3 2 6 6 4 4 2 2 2 3 3 3 1 2 1 2 2 2 3 2 2 2 3 2 2 3 3 2 4 4 2 2 4 6
19 19 18 18 17 17 17 17 17 17 16 10 8 8 10 12 12 11 2 3 6 5 5 6 12 18 18 16 5 2 4 2 0 3 1 2 2 2 1 2 2 2 2 1 3 2 2 2 2 1 2 2 4 4
19 19 19 18 17 17 17 16 16 16 16 13 9 8 8 10 12 10 6 7 3 3 5 4 5 3 10 24 18 3 2 1 1 2 3 2 2 3 2 3 2 3 3 2 2 2 4 3 4 4 4 2 4 2
20 19 18 18 18 16 16 16 16 16 16 14 6 8 7 8 11 13 7 6 3 2 3 4 5 8 6 9 20 25 3 3 3 1 1 2 2 3 1 1 2 1 5 2 3 4 4 5 6 4 5 6 6 6
20 19 18 18 17 16 15 15 14 15 16 15 9 6 7 8 11 15 18 14 10 2 3 6 18 7 4 9 15 17 18 8 2 2 3 2 2 3 1 2 3 6 5 3 0 4 2 4 7 6 8 9 8 7
19 19 18 17 17 16 16 14 14 14 15 15 9 6 7 8 11 8 2 3 8 9 2 4 5 4 5 4 10 13 10 5 3 3 2 2 1 3 3 2 2 8 6 4 0 1 3 0 7 7 6 7 6 4
19 19 19 18 17 16 16 14 14 14 14 15 6 6 7 8 10 4 2 2 8 5 2 4 4 2 5 3 3 3 5 2 4 2 3 3 3 4 2 4 3 6 8 8 6 6 3 8 6 8 6 7 7 6
20 20 19 18 17 16 15 14 12 13 13 13 6 7 8 8 13 8 6 18 9 1 2 3 4 4 4 2 2 1 3 3 3 1 2 3 3 2 4 8 6 5 4 6 10 11 2 6 9 10 11 11 8 6
21 20 19 17 16 15 14 13 11 11 13 7 7 7 6 3 2 2 2 4 20 2 3 2 3 2 4 1 1 1 0 3 1 3 3 4 5 5 7 10 9 10 6 2 6 9 4 12 13 13 11 9 9 8
20 19 19 16 15 13 13 11 9 9 11 6 4 2 2 2 2 4 1 2 4 3 3 4 2 3 2 2 1 2 0 1 3 2 3 4 7 10 11 11 8 7 8 10 11 6 8 10 13 15 15 13 10 9
19 19 18 17 16 13 12 9 8 8 5 3 3 2 2 1 2 2 2 3 3 3 4 4 6 9 2 3 2 1 1 1 3 2 3 3 5 6 10 10 10 10 8 15 11 12 15 14 15 13 11 12 11 9
20 19 18 17 16 14 12 11 9 8 3 2 4 5 2 2 1 3 3 2 4 3 4 3 2 5 2 2 2 1 1 1 3 1 3 3 4 5 4 6 6 8 10 12 16 9 11 10 16 17 14 14 14 10
20 19 17 16 15 13 13 13 12 11 3 1 2 2 2 2 2 5 6 4 3 3 3 3 3 2 2 3 1 2 3 2 0 3 3 3 3 5 6 7 7 4 9 9 9 10 8 8 9 14 14 10 10 10
17 15 14 15 14 13 14 14 13 9 4 2 3 2 4 4 5 5 4 2 2 3 2 2 2 3 2 3 1 2 2 1 3 3 3 2 6 10 8 6 4 4 7 8 8 10 9 9 10 10 11 9 10 11
13 12 12 13 14 15 16 16 14 9 3 2 3 4 7 4 2 2 4 3 3 2 2 1 1 2 2 2 1 2 3 3 2 2 2 5 8 7 8 6 3 3 7 8 9 9 10 8 8 8 8 8 9 10
10 9 14 15 17 18 19 18 13 5 3 3 4 4 3 2 3 2 3 5 3 3 3 1 1 0 2 2 4 4 2 3 1 1 2 4 6 6 5 4 2 4 5 7 7 6 7 7 6 5 5 6 9 11
14 5 13 18 21 22 23 10 7 4 3 3 4 4 5 4 4 1 2 3 2 2 3 2 4 2 2 2 3 3 3 1 1 2 2 3 4 5 4 4 4 2 5 6 7 6 5 5 5 5 5 7 9 11
6 14 20 25 29 26 11 4 4 4 6 6 4 2 3 3 2 0 2 1 2 2 2 2 2 0 3 3 3 2 4 3 3 3 2 2 3 4 3 3 3 5 4 6 6 5 4 3 3 6 4 3 7 8
14 21 28 34 32 10 6 4 4 3 7 3 3 4 2 2 4 4 1 3 3 2 1 3 3 3 5 3 3 2 2 2 1 1 3 5 5 6 2 2 2 3 3 1 2 2 0 2 5 4 4 6 8 8
18 25 33 36 24 5 4 2 5 3 3 4 3 3 2 3 1 2 5 4 2 2 3 3 4 3 3 4 3 3 1 1 3 3 2 1 3 3 3 1 1 1 2 2 1 2 2 4 4 5 5 7 8 9
20 24 31 32 4 5 2 4 4 4 3 4 3 4 2 2 3 4 3 3 4 3 3 3 4 5 6 4 5 5 6 4 4 3 2 0 1 0 1 2 2 2 3 4 5 6 8 7 5 4 5 7 9 9
12 22 8 12 3 3 3 7 2 1 3 0 3 3 2 3 3 3 3 5 3 5 4 3 3 3 5 7 7 10 7 4 7 6 5 4 3 3 2 3 4 4 6 7 7 7 9 6 5 6 6 6 7 8
15 8 5 7 4 3 3 3 5 4 4 3 3 3 2 2 2 2 2 3 4 4 7 6 6 3 4 5 6 7 7 8 7 8 7 6 8 7 7 7 7 8 7 6 7 7 7 6 6 8 7 7 6 6
12 4 4 4 4 3 2 3 3 3 3 3 4 3 3 3 3 3 3 2 2 2 2 2 3 4 4 6 6 7 4 6 9 8 7 7 6 9 8 9 9 12 11 7 6 6 5 6 7 6 6 6 8 9
3 4 1 3 2 3 5 3 3 4 3 4 3 3 3 3 3 3 2 3 4 2 1 1 1 3 4 4 3 6 5 8 7 6 6 9 9 9 10 11 11 10 6 7 9 8 8 7 8 9 9 9 11 13
4 5 4 3 3 4 3 5 5 4 2 4 4 1 2 2 2 2 2 3 3 3 4 3 3 3 3 3 3 3 3 2 4 5 6 6 6 7 7 6 6 7 10 13 10 14 11 10 10 10 10 12 13 11
2 3 3 2 2 3 2 0 0 1 3 4 3 4 3 3 2 3 2 3 3 6 8 8 7 7 7 9 7 6 5 4 6 6 7 7 9 9 9 9 8 5 5 7 10 13 12 11 12 13 12 8 8 9
2 2 2 3 1 1 1 2 2 1 3 2 3 2 2 3 3 2 2 6 7 11 10 8 8 8 8 8 6 5 5 5 8 8 9 10 12 12 11 9 9 9 11 10 8 9 11 12 10 11 11 9 8 8
3 2 2 2 1 0 3 4 3 2 2 2 2 2 3 2 3 3 4 11 8 9 11 11 13 11 9 7 6 3 3 4 5 5 6 6 5 2 4 5 6 7 5 7 8 8 8 9 8 8 8 9 8 7
2 2 2 3 3 4 3 2 2 2 1 3 4 4 3 3 8 9 8 9 10 9 8 8 11 12 11 11 10 11 4 3 4 5 5 7 7 11 11 9 7 5 5 7 7 6 10 10 8 7 6 6 7 7
1 1 2 2 3 2 2 3 1 1 1 3 6 5 5 4 4 9 15 11 10 12 15 15 14 12 11 11 10 9 7 5 10 13 11 12 13 13 9 8 7 6 5 2 6 8 9 9 9 10 10 10 10 10
3 3 2 1 3 4 4 3 3 3 2 2 2 2 3 2 3 2 11 13 14 15 15 15 15 15 12 10 8 8 12 14 13 14 14 13 11 9 7 8 7 5 7 9 11 11 10 9 9 12 14 14 13 12
1 1 0 1 1 2 3 2 2 2 2 2 2 2 3 3 3 3 5 12 9 10 15 19 20 15 12 9 8 12 14 13 15 16 14 12 8 6 6 6 6 7 8 9 9 11 11 11 13 13 11 12 12 14
Wind_Direction
320 324 325 325 330 331 333 334 337 339 340 336 329 344 345 355 1 8 350 43 27 295 273 223 232 214 200 251 294 360 281 196 110 100 197 166 205 183 264 278 288 240 182 169 146 216 231 149 146 233 42 104 151 176
316 319 319 322 325 326 328 330 332 335 335 329 325 345 336 343 353 2 7 312 306 232 280 248 246 247 252 252 279 253 307 287 134 109 182 130 183 187 265 222 173 224 297 349 246 26 27 242 253 61 265 136 156 179
313 314 314 317 320 322 325 327 328 330 331 327 321 330 322 329 337 347 331 333 327 284 277 275 247 279 248 230 216 242 219 263 187 356 142 131 228 177 210 227 222 199 182 248 258 185 260 269 248 236 195 125 147 180
310 311 311 313 315 318 319 319 322 325 327 326 291 292 312 311 323 327 320 300 304 295 291 285 298 283 292 211 205 217 239 85 84 249 207 157 231 207 231 22 259 45 159 192 246 249 279 255 228 183 155 142 140 142
306 307 307 310 312 314 313 313 316 318 321 321 307 278 312 304 313 313 299 280 231 262 298 291 304 285 261 207 212 209 220 236 236 235 210 196 121 173 160 238 234 187 183 197 208 196 214 184 180 173 169 165 153 129
302 302 304 305 305 307 308 304 305 311 313 316 306 288 304 300 313 322 246 14 199 183 271 294 324 284 312 243 209 203 202 194 215 221 198 173 163 219 204 233 255 204 216 240 337 288 205 16 149 152 156 144 136 134
299 298 297 299 299 300 302 297 296 303 305 311 279 274 297 288 296 257 302 353 154 169 260 292 294 274 298 262 151 134 164 185 222 198 212 170 175 196 222 242 231 218 223 217 207 155 174 186 182 164 146 136 138 113
295 296 296 294 294 292 295 295 290 298 300 302 269 292 289 285 292 292 301 229 191 244 246 281 279 300 6 287 184 24 164 193 183 232 189 188 127 214 237 240 244 239 232 200 203 210 312 154 146 149 149 147 141 136
294 293 294 292 288 285 284 286 281 289 294 260 251 272 279 228 238 345 299 178 193 333 294 247 277 307 355 351 287 156 144 209 92 224 213 172 197 221 225 230 221 212 210 224 180 197 210 182 168 162 162 172 162 165
288 285 286 284 280 277 275 274 269 280 297 249 273 232 231 209 248 223 263 134 170 212 227 249 247 262 330 333 355 275 330 217 231 217 132 215 248 250 246 230 231 217 199 163 152 158 173 174 180 175 186 187 189 178
283 281 279 277 273 268 261 254 249 263 269 224 218 238 316 161 169 214 202 215 164 233 205 237 232 245 197 276 314 345 19 202 238 157 237 222 250 234 232 230 240 240 197 199 198 188 182 174 184 190 193 202 197 191
283 280 277 271 265 258 244 229 217 220 209 200 282 290 280 205 191 228 206 172 214 250 195 217 223 206 218 208 253 162 270 225 245 129 228 247 260 309 292 274 285 237 205 209 207 179 179 175 186 193 201 205 208 211
278 275 270 263 254 241 222 212 207 221 241 240 228 233 193 153 190 208 196 200 219 204 214 203 216 224 181 221 216 220 242 241 242 227 241 255 321 312 323 304 296 243 200 187 189 186 165 184 188 199 210 213 207 206
272 267 260 246 235 219 205 197 194 205 212 227 180 226 211 193 232 203 211 212 216 233 254 219 203 214 183 183 163 236 212 280 242 242 246 332 329 323 321 305 270 210 199 186 174 174 183 193 203 208 213 200 198 196
262 256 238 226 209 198 187 184 184 182 195 236 227 226 209 226 251 249 250 250 229 245 236 247 164 230 180 168 147 292 224 239 246 277 327 338 324 319 321 325 299 174 166 164 169 184 192 193 192 204 200 204 197 178
238 215 213 204 187 180 171 163 171 199 231 233 235 258 228 247 232 216 245 270 265 218 135 160 104 267 241 244 195 214 221 235 291 248 321 321 339 348 345 342 354 112 143 149 146 155 156 163 163 148 160 180 186 188
191 193 186 181 173 165 163 143 172 211 236 233 226 235 259 289 265 261 342 349 320 211 196 150 166 150 350 245 228 197 233 269 263 289 313 321 333 343 0 25 1 355 115 118 121 130 125 136 142 153 189 199 198 204
187 176 172 167 159 154 177 205 205 210 231 234 238 216 212 239 249 214 222 6 309 256 193 140 94 189 245 219 199 225 250 271 265 256 265 288 311 330 5 30 25 58 71 94 106 119 125 157 225 250 259 227 206 212
170 172 170 164 158 151 165 188 217 234 226 239 248 235 240 246 235 237 99 294 244 299 203 110 235 223 231 231 264 244 248 248 319 356 248 259 245 262 359 24 24 63 64 48 95 111 146 248 263 270 255 216 225 218
168 174 171 167 168 187 169 159 187 258 235 215 209 212 197 232 187 74 287 266 183 214 189 166 223 224 195 274 245 266 249 285 281 292 271 266 228 256 282 215 183 242 207 209 237 252 259 268 256 240 232 219 217 226
142 170 169 177 229 257 271 164 198 225 235 215 177 190 218 225 225 218 219 135 203 226 224 214 222 226 255 268 244 258 259 202 232 263 305 254 119 272 268 259 255 256 248 245 239 233 228 239 244 220 218 222 224 235
129 149 135 193 269 252 243 208 251 215 224 154 160 191 207 213 225 225 165 209 238 238 218 217 235 207 227 248 247 222 254 225 225 246 241 232 244 222 242 240 221 241 239 239 243 246 246 241 251 232 232 233 231 237
128 129 123 188 251 220 254 184 219 193 217 185 120 209 217 218 208 140 239 236 259 233 226 229 257 260 261 276 266 262 235 221 238 248 253 256 265 257 257 247 238 255 270 262 233 240 248 247 231 227 238 237 238 245
121 155 221 204 211 236 200 207 234 196 192 182 184 211 210 202 141 194 245 258 275 320 237 237 260 274 258 242 248 258 255 234 256 256 239 235 255 261 246 261 258 249 247 265 248 243 235 219 208 220 227 234 244 250
172 201 124 273 218 242 201 203 205 205 190 172 195 237 192 164 187 205 241 353 354 1 353 349 301 265 274 287 277 269 252 227 232 252 252 226 249 267 261 256 254 253 241 265 262 241 226 224 226 229 238 245 243 251
228 202 198 218 215 227 215 182 179 146 191 177 227 237 168 179 201 94 79 347 345 353 359 343 325 309 279 254 301 323 338 313 231 247 270 237 244 250 271 266 259 253 233 251 245 238 215 202 219 227 235 242 249 261
264 204 193 229 285 282 270 264 280 207 195 209 207 173 186 185 129 101 73 23 346 333 314 298 291 288 285 289 295 299 309 265 252 274 294 283 273 267 256 255 255 258 260 248 227 229 233 222 217 220 239 246 244 251
277 283 296 161 220 255 21 338 351 277 257 229 167 123 121 27 54 1 6 320 328 345 347 344 347 325 291 285 287 298 318 313 304 292 287 280 274 268 255 253 260 263 268 244 239 228 223 217 214 219 233 239 243 248
248 232 249 231 193 149 234 225 235 206 218 204 105 94 94 71 8 357 348 353 359 2 355 351 2 6 23 44 36 2 332 339 349 337 330 326 326 326 341 276 268 273 260 224 228 228 233 220 215 224 245 252 254 238
256 197 234 212 214 229 225 221 291 321 105 83 106 104 87 86 39 37 40 31 32 23 357 6 20 23 19 16 6 10 18 35 63 15 322 309 304 304 302 305 301 286 285 239 227 238 218 216 224 230 222 213 202 193
246 220 245 240 261 249 305 319 240 144 110 91 98 117 131 145 136 50 38 26 26 24 22 16 12 12 10 3 355 347 348 347 323 324 309 294 289 291 288 292 291 282 254 199 198 219 226 224 231 236 232 225 218 207
194 216 214 248 286 308 346 27 27 61 64 106 99 113 137 131 95 70 16 17 19 16 6 359 356 345 344 336 328 326 322 318 323 325 321 315 298 286 280 281 282 272 240 234 230 235 245 247 251 245 242 235 217 195
224 157 222 247 348 9 15 6 58 99 98 95 81 80 49 54 80 53 28 22 13 0 346 338 337 336 330 325 336 342 343 334 338 350 346 328 322 319 313 318 298 257 234 225 229 236 244 249 256 261 266 272 223 188